Regional Weather Roundup
Issued by NWS Sterling, VA

Home | Current Version | Previous Version | Graphics & Text | Print | Product List | Glossary On
Versions: 1 2 3 4 5 6 7 8 9 10 11 12 13 14 15 16 17 18 19 20 21 22 23 24 25 26 27
000
ASUS41 KLWX 070810
RWRLWX

REGIONAL WEATHER ROUNDUP
NATIONAL WEATHER SERVICE BALTIMORE MD/WASHINGTON DC
300 AM EST WED DEC 07 2016

Note: "FAIR" indicates few or no clouds below 12,000 feet
with no significant weather and/or obstructions to visibility.
 TC=TEMPERATURE CELSIUS

 * =Non NWS site. Station does not report precipitation (e.g. rain,
    snow, etc.), thunder, or fog.

DCZ001-MDZ009-015-VAZ040>042-051-053>054-070900-
WASHINGTON METRO

CITY           SKY/WX    TMP DP  RH WIND       PRES   REMARKS
WASHINGTON NAT CLOUDY    43  41  93 N12       29.89S
DULLES         CLOUDY    40  37  89 NW8       29.92R
ANDREWS AFB    CLOUDY    43  41  93 NW9       29.87R
FT BELVOIR     CLOUDY    43  39  88 NW7       29.90R
QUANTICO       CLOUDY    43  40  89 N9        29.91R
COLLEGE PARK*  CLOUDY    41  37  87 NW5       29.89S
LEESBURG*      CLOUDY    41  41 100 NW6       29.93R
MANASSAS*        N/A    N/A N/A N/A MISG        N/A
GAITHERSBURG*  CLOUDY    39  36  87 NW3       29.93F

$$

MDZ006>007-011-014-070900-
BALTIMORE METRO

CITY           SKY/WX    TMP DP  RH WIND       PRES   REMARKS
BWI AIRPORT    CLOUDY    42  42 100 NW5       29.87S
MD SCIENCE CTR   N/A     44  39  82 MISG      29.88S
ANNAPOLIS      CLOUDY    46  42  86 NW12      29.87S
FORT MEADE*    CLOUDY    41  39  93 NW3       29.90F

$$

MDZ012-015-019>023-070900-
MARYLAND EASTERN SHORE

CITY           SKY/WX    TMP DP  RH WIND       PRES   REMARKS
OCEAN CITY     LGT RAIN  50  50 100 N15       29.80R FOG
SALISBURY      CLOUDY    46  45  96 N10       29.81R
BAY BRIDGE AP* CLOUDY    45  41  87 N10       29.87S
CAMBRIDGE*     CLOUDY    43  41  93 NW9       29.84S
EASTON*        CLOUDY    45  42  88 N9        29.89F

$$

MDZ017>025-070900-
SOUTHERN MARYLAND

CITY           SKY/WX    TMP DP  RH WIND       PRES   REMARKS
PATUXENT RIVER CLOUDY    45  44  97 NW14      29.86R
ST INIGOES     LGT RAIN  46  44  93 VRB6      29.85R
LEONARDTOWN*   CLOUDY    43  41  93 NW3       29.88R

$$

MDZ003>005-070900-
NORTH CENTRAL MARYLAND

CITY           SKY/WX    TMP DP  RH WIND       PRES   REMARKS
FREDERICK*     CLOUDY    39  39 100 CALM      29.95R FOG
HAGERSTOWN APT CLOUDY    39  35  86 CALM      29.91R FOG
WESTMINSTER*   CLOUDY    37  37 100 NW5       29.88F FOG

$$

MDZ501>502-070900-
WESTERN MARYLAND

CITY           SKY/WX    TMP DP  RH WIND       PRES   REMARKS
OAKLAND*       FOG       34  34 100 W7        29.87R VSB<1/4
CUMBERLAND*    NOT AVBL

$$

VAZ025>031-070900-
SHENANDOAH VALLEY

CITY           SKY/WX    TMP DP  RH WIND       PRES   REMARKS
WINCHESTER*    CLOUDY    36  36 100 CALM      29.92R FOG
FRONT ROYAL*   CLOUDY    37  37 100 CALM      29.91R
LURAY*         PTSUNNY   36  36 100 CALM      29.91S FOG
NEW MARKET*    PTSUNNY   35  34  96 CALM      29.92R
STAUNTON*      CLOUDY    36  36 100 CALM      29.93R FOG
WAYNESBORO*    CLOUDY    36  35  96 NW3       29.89R

$$

WVZ021-048>050-054>055-070900-
EASTERN WEST VIRGINIA PANHANDLE

CITY           SKY/WX    TMP DP  RH WIND       PRES   REMARKS
MARTINSBURG    CLOUDY    38  37  97 SW3       29.93R FOG
PETERSBURG*    CLOUDY    38  37  97 CALM      29.94R

$$

VAZ036>039-050-070900-
CENTRAL FOOTHILLS

CITY           SKY/WX    TMP DP  RH WIND       PRES   REMARKS
CHARLOTTESVILL PTCLDY    39  37  92 CALM      29.89R
CULPEPER*      CLOUDY    42  39  91 CALM      29.93R
ORANGE*          N/A     43  43 100 CALM      29.92R
GORDONSVILLE*  PTSUNNY   40  40  97 CALM      29.90R
WARRENTON*     CLOUDY    42  37  82 NW5       29.91R

$$

VAZ055>057-070900-
NORTH AND CENTRAL PIEDMONT

CITY           SKY/WX    TMP DP  RH WIND       PRES   REMARKS
FREDERICKSBRG* CLOUDY    43  43 100 NW5       29.90R
STAFFORD*      PTCLDY    40  40  99 NW6       29.95R

$$

NCZ024-NYZ072-PAZ021-071-VAZ022-071-070900-
OTHER REGIONAL OBSERVATIONS

CITY           SKY/WX    TMP DP  RH WIND       PRES   REMARKS
NEW YORK CITY  LGT RAIN  40  38  93 NE6       29.89R FOG
PHILADELPHIA   LGT RAIN  42  39  89 N12       29.87S
PITTSBURGH     CLOUDY    39  34  82 W14       29.93R
ROANOKE        PTCLDY    48  39  71 NW9G20    29.93R
RICHMOND       CLOUDY    43  41  93 NW9       29.89R
RALEIGH        PTCLDY    43  41  93 CALM      29.93R

$$

ANZ530>537-070900-
MARINE OBSERVATIONS

STATION/POSITION TIME  TEMP    WIND        PRES
                       AIR SEA DIR/SP/G
                 (UTC) (F)     (DEG/KT/KT) (MB)
THOMAS PT LIGHT  0800   44 49  330/ 10/ 11   N/A
BALT KEY BRIDGE  0742   44     310/ 11/ 12 1012.0R
COVE POINT       0742   45     360/ 15/ 19 1011.3R
LEWISETTA        0742   46 48  350/  9/ 13 1010.8R
SOLOMONS ISLAND  0742   45 51  330/  9/ 12   N/A
PINEY POINT      0748          350/ 13/ 17   N/A

$$





USA.gov is the U.S. government's official web portal to all federal, state and local government web resources and services.